User: anonymous   Login
Location: Plum
(40.5000°N, 79.7500°W)
Time: 13:02:54
(UTC-05:00)
Language:

MOZ.5/SAFIR/RUBIN 5/SL-8 - Orbit

View from above orbital plane
View from above orbital plane
View from above satellite
View from above satellite

Ground track
Ground track

The orbit data is extracted from the following two-line orbital elements,

1 28898U 05043G   18020.88975952 +.00000082 +00000-0 +26298-4 0  9992
2 28898 097.9540 166.5686 0018951 221.2736 138.7033 14.60241753274973
Epoch (UTC): 20 January 2018 21:21:15
Eccentricity: 0.0018951
inclination: 97.9540°
perigee height: 679 km
apogee height: 706 km
right ascension of ascending node: 166.5686°
argument of perigee: 221.2736°
revolutions per day: 14.60241753
mean anomaly at epoch: 138.7033°
orbit number at epoch: 27497

The dashed part of the orbit path shows where the satellite is in the earth's shadow,  

DLR